When you browse on this site, cookies collect data to enhance your experience and personalize the content and advertising you see.
Visit our Privacy Policy to learn more. By continuing to use the site, you agree to this use of cookies and data.
  • In Österreich
  • Länderverzeichnis
  • Für 7 Tage
  • Wassertemperatur
  • Wetterkarte
  • News
  • Widgets
  • user-avatar
    Anmelden

    Stündliche Wetter Shusha

    Heute, 22 Januar, Mittwoch

    Zeit Temperatur Niederschläge Wind Luftdruck Luftfeuchtigkeit
    00:00 -3°C° 0 mm 1 m/S 662 mmHg 77%
    01:00 -3°C° 0 mm 1 m/S 661 mmHg 75%
    02:00 -3°C° 0 mm 1 m/S 661 mmHg 73%
    03:00 -4°C° 0 mm 0 m/S 661 mmHg 72%
    04:00 -3°C° 0 mm 1 m/S 661 mmHg 72%
    05:00 -3°C° 0 mm 1 m/S 660 mmHg 72%
    06:00 -3°C° 0 mm 1 m/S 660 mmHg 72%
    07:00 -2°C° 0 mm 1 m/S 660 mmHg 68%
    08:00 -1°C° 0 mm 1 m/S 660 mmHg 65%
    09:00 -1°C° 0 mm 1 m/S 661 mmHg 61%
    10:00 0°C° 0 mm 1 m/S 660 mmHg 59%
    11:00 +1°C° 0 mm 1 m/S 660 mmHg 58%
    12:00 +2°C° 0 mm 1 m/S 660 mmHg 56%
    13:00 +2°C° 0 mm 1 m/S 659 mmHg 58%
    14:00 +2°C° 0 mm 1 m/S 659 mmHg 61%
    15:00 +2°C° 0 mm 1 m/S 659 mmHg 63%
    16:00 +1°C° 0 mm 1 m/S 658 mmHg 68%
    17:00 0°C° 0 mm 1 m/S 658 mmHg 73%
    18:00 -2°C° 0 mm 0 m/S 658 mmHg 78%
    19:00 -2°C° 0 mm 0 m/S 658 mmHg 76%
    20:00 -2°C° 0 mm 0 m/S 658 mmHg 74%
    21:00 -3°C° 0 mm 0 m/S 658 mmHg 73%
    22:00 -3°C° 0 mm 0 m/S 657 mmHg 72%
    23:00 -3°C° 0 mm 0 m/S 657 mmHg 71%

    Morgen, 23 Januar, Donnerstag

    Zeit Temperatur Niederschläge Wind Luftdruck Luftfeuchtigkeit
    00:00 -3°C° 0 mm 0 m/S 657 mmHg 70%
    01:00 -3°C° 0 mm 0 m/S 656 mmHg 69%
    02:00 -2°C° 0 mm 1 m/S 656 mmHg 67%
    03:00 -2°C° 0 mm 1 m/S 655 mmHg 66%
    04:00 -2°C° 0 mm 1 m/S 655 mmHg 62%
    05:00 -2°C° 0 mm 1 m/S 654 mmHg 59%
    06:00 -2°C° 0 mm 1 m/S 654 mmHg 55%
    07:00 -2°C° 0 mm 1 m/S 654 mmHg 53%
    08:00 -2°C° 0 mm 0 m/S 654 mmHg 50%
    09:00 -1°C° 0 mm 0 m/S 654 mmHg 47%
    10:00 0°C° 0 mm 0 m/S 654 mmHg 46%
    11:00 +2°C° 0 mm 1 m/S 653 mmHg 44%
    12:00 +3°C° 0 mm 1 m/S 653 mmHg 42%
    13:00 +3°C° 0 mm 1 m/S 653 mmHg 45%
    14:00 +3°C° 0 mm 1 m/S 652 mmHg 47%
    15:00 +3°C° 0 mm 1 m/S 652 mmHg 50%
    16:00 +2°C° 0 mm 1 m/S 652 mmHg 55%
    17:00 +1°C° 0 mm 1 m/S 652 mmHg 60%
    18:00 0°C° 0 mm 1 m/S 652 mmHg 65%
    19:00 0°C° 0 mm 1 m/S 652 mmHg 62%
    20:00 0°C° 0 mm 1 m/S 652 mmHg 60%
    21:00 0°C° 0 mm 1 m/S 653 mmHg 57%
    22:00 0°C° 0 mm 1 m/S 653 mmHg 57%
    23:00 0°C° 0 mm 1 m/S 653 mmHg 57%

    übermorgen, 24 Januar, Freitag

    Zeit Temperatur Niederschläge Wind Luftdruck Luftfeuchtigkeit
    00:00 0°C° 0 mm 1 m/S 653 mmHg 56%
    01:00 0°C° 0 mm 1 m/S 654 mmHg 57%
    02:00 0°C° 0 mm 1 m/S 654 mmHg 57%
    03:00 +1°C° 0 mm 1 m/S 654 mmHg 58%
    04:00 0°C° 0.2 mm 1 m/S 655 mmHg 69%
    05:00 -1°C° 0.2 mm 1 m/S 655 mmHg 80%
    06:00 -1°C° 0.2 mm 1 m/S 655 mmHg 91%
    07:00 -1°C° 0.6 mm 1 m/S 655 mmHg 92%
    08:00 -2°C° 0.6 mm 1 m/S 656 mmHg 92%
    09:00 -2°C° 0.6 mm 1 m/S 656 mmHg 93%
    10:00 -4°C° 1.1 mm 2 m/S 656 mmHg 93%
    11:00 -4°C° 1.1 mm 2 m/S 657 mmHg 93%
    12:00 -5°C° 1.1 mm 3 m/S 657 mmHg 93%
    13:00 -4°C° 1 mm 2 m/S 657 mmHg 91%
    14:00 -4°C° 1 mm 2 m/S 657 mmHg 90%
    15:00 -5°C° 1 mm 2 m/S 657 mmHg 89%
    16:00 -5°C° 0.5 mm 2 m/S 657 mmHg 89%
    17:00 -6°C° 0.5 mm 2 m/S 658 mmHg 89%
    18:00 -4°C° 0.5 mm 1 m/S 658 mmHg 90%
    19:00 -6°C° 0.1 mm 1 m/S 659 mmHg 88%
    20:00 -6°C° 0.1 mm 1 m/S 660 mmHg 87%
    21:00 -6°C° 0.1 mm 1 m/S 661 mmHg 85%
    22:00 -7°C° 0 mm 1 m/S 661 mmHg 84%
    23:00 -7°C° 0 mm 1 m/S 661 mmHg 83%

    25 Januar, Samstag

    Zeit Temperatur Niederschläge Wind Luftdruck Luftfeuchtigkeit
    00:00 -7°C° 0 mm 1 m/S 662 mmHg 82%
    01:00 -8°C° 0 mm 1 m/S 662 mmHg 81%
    02:00 -8°C° 0 mm 1 m/S 662 mmHg 80%
    03:00 -8°C° 0 mm 1 m/S 662 mmHg 78%
    04:00 -9°C° 0 mm 1 m/S 662 mmHg 77%
    05:00 -10°C° 0 mm 2 m/S 662 mmHg 76%
    06:00 -10°C° 0 mm 2 m/S 662 mmHg 75%
    07:00 -8°C° 0 mm 1 m/S 663 mmHg 74%
    08:00 -7°C° 0 mm 1 m/S 664 mmHg 73%
    09:00 -6°C° 0 mm 1 m/S 664 mmHg 71%
    10:00 -4°C° 0 mm 1 m/S 664 mmHg 70%
    11:00 -3°C° 0 mm 1 m/S 664 mmHg 69%
    12:00 -3°C° 0 mm 0 m/S 664 mmHg 68%
    13:00 -2°C° 0 mm 1 m/S 663 mmHg 69%
    14:00 -2°C° 0 mm 1 m/S 663 mmHg 70%
    15:00 -2°C° 0 mm 1 m/S 662 mmHg 72%
    16:00 -3°C° 0 mm 1 m/S 662 mmHg 74%
    17:00 -4°C° 0 mm 1 m/S 662 mmHg 77%
    18:00 -6°C° 0 mm 1 m/S 661 mmHg 79%
    19:00 -6°C° 0 mm 1 m/S 661 mmHg 76%
    20:00 -6°C° 0 mm 1 m/S 661 mmHg 72%
    21:00 -6°C° 0 mm 1 m/S 661 mmHg 69%
    22:00 -6°C° 0 mm 1 m/S 661 mmHg 65%
    23:00 -6°C° 0 mm 1 m/S 661 mmHg 61%

    26 Januar, Sonntag

    Zeit Temperatur Niederschläge Wind Luftdruck Luftfeuchtigkeit
    00:00 -7°C° 0 mm 2 m/S 661 mmHg 57%
    01:00 -6°C° 0 mm 1 m/S 661 mmHg 55%
    02:00 -4°C° 0 mm 1 m/S 660 mmHg 52%
    03:00 -4°C° 0 mm 1 m/S 660 mmHg 49%
    04:00 -4°C° 0 mm 1 m/S 660 mmHg 48%
    05:00 -4°C° 0 mm 1 m/S 660 mmHg 48%
    06:00 -4°C° 0 mm 1 m/S 660 mmHg 48%
    07:00 -3°C° 0 mm 1 m/S 661 mmHg 50%
    08:00 -1°C° 0 mm 1 m/S 661 mmHg 53%
    09:00 0°C° 0 mm 1 m/S 662 mmHg 56%
    10:00 +1°C° 0 mm 1 m/S 661 mmHg 59%
    11:00 +1°C° 0 mm 0 m/S 661 mmHg 61%
    12:00 +2°C° 0 mm 0 m/S 661 mmHg 64%
    13:00 +2°C° 0 mm 0 m/S 661 mmHg 66%
    14:00 +2°C° 0 mm 0 m/S 660 mmHg 69%
    15:00 +2°C° 0 mm 0 m/S 660 mmHg 71%
    16:00 +1°C° 0 mm 1 m/S 660 mmHg 69%
    17:00 0°C° 0 mm 1 m/S 660 mmHg 67%
    18:00 -1°C° 0 mm 1 m/S 660 mmHg 66%
    19:00 -1°C° 0 mm 1 m/S 660 mmHg 63%
    20:00 -1°C° 0 mm 1 m/S 660 mmHg 61%
    21:00 -1°C° 0 mm 1 m/S 660 mmHg 58%
    22:00 -2°C° 0 mm 1 m/S 660 mmHg 56%
    23:00 -2°C° 0 mm 1 m/S 661 mmHg 54%

    27 Januar, Montag

    Zeit Temperatur Niederschläge Wind Luftdruck Luftfeuchtigkeit
    00:00 -2°C° 0 mm 1 m/S 661 mmHg 52%
    01:00 -2°C° 0 mm 1 m/S 661 mmHg 53%
    02:00 -2°C° 0 mm 1 m/S 661 mmHg 53%
    03:00 -3°C° 0 mm 1 m/S 661 mmHg 54%
    04:00 -3°C° 0 mm 1 m/S 662 mmHg 54%
    05:00 -3°C° 0 mm 1 m/S 662 mmHg 55%
    06:00 -3°C° 0 mm 1 m/S 662 mmHg 56%
    07:00 -2°C° 0 mm 1 m/S 663 mmHg 56%
    08:00 -1°C° 0 mm 1 m/S 664 mmHg 57%
    09:00 0°C° 0 mm 1 m/S 665 mmHg 57%
    10:00 0°C° 0 mm 1 m/S 665 mmHg 57%
    11:00 +1°C° 0 mm 1 m/S 665 mmHg 57%
    12:00 +1°C° 0 mm 1 m/S 665 mmHg 57%
    13:00 +1°C° 0 mm 1 m/S 665 mmHg 59%
    14:00 +1°C° 0 mm 1 m/S 665 mmHg 60%
    15:00 +2°C° 0 mm 1 m/S 665 mmHg 62%
    16:00 0°C° 0 mm 1 m/S 665 mmHg 66%
    17:00 -1°C° 0 mm 1 m/S 664 mmHg 70%
    18:00 -3°C° 0 mm 0 m/S 664 mmHg 74%
    19:00 -3°C° 0 mm 0 m/S 665 mmHg 75%
    20:00 -3°C° 0 mm 1 m/S 665 mmHg 75%
    21:00 -3°C° 0 mm 1 m/S 665 mmHg 75%
    22:00 -3°C° 0 mm 1 m/S 665 mmHg 74%
    23:00 -3°C° 0 mm 1 m/S 665 mmHg 73%
    Mehr zeigen